Tracking 30009 objects as of 7-Dec-2024
HD Live streaming from Space Station
objects crossing your sky now

STARLINK-31307

Track STARLINK-31307 now!
10-day predictions
STARLINK-31307 is classified as:


NORAD ID: 59089
Int'l Code: 2024-041R
Perigee: 494.4 km
Apogee: 495.8 km
Inclination: 43.0 °
Period: 94.4 minutes
Semi major axis: 6866 km
RCS: Unknown
Launch date: February 29, 2024
Source: United States (US)
Launch site: AIR FORCE EASTERN TEST RANGE (AFETR)
Your satellite tracking list
Your tracking list is empty




NASA's NSSDC Master Catalog

Two Line Element Set (TLE):
1 59089U 24041R   24342.48464038 -.00000701  00000-0 -16958-4 0  9997
2 59089  43.0001   9.6972 0000986 238.1690 121.9065 15.25936542 44448
Source of the keplerian elements: AFSPC